INTELSAT 33E DEB, 62000

Orbit data source: Space-Track

INTELSAT 33E DEB, 62000 is space debris in GEO originally from a launch on Wed, 24 Aug 2016 UTC launched from the French Guiana (FRGUI). Debris objects in space refer to the collection of defunct objects orbiting the Earth. Examples of debris include non-operational satellites, rocket bodies, and fragments generated from explosions, collisions, or faulty payload assembly.

Loading next visibility...
Identifier
62000, 2016-053S
Orbit
GEO
Country
Flag of UnknownUnknown / ITSO
Related business
Manufacturer
Boeing/ES
Mission
Spacecraft
Bus & Motor
Unknown
Mass
Unknown
Launch date (UTC)
2016-08-24 (9 years ago)
Launch vehicle
Unknown
Launch site
French Guiana (FRGUI)
Object type
Payload
Rocket body
Debris
Shape & HBR
Unknown shape, 1.1 m
Radar Cross Section
RCS unknown

Expand to show TLE details & history
Last TLE update: 2 weeks ago

TLE from 2 weeks ago
0 INTELSAT 33E DEB
1 62000U 16053S   25338.42239660  .00000089  00000-0  00000-0 0  9993
2 62000   1.2055  98.0600 0010890 244.7392 114.1876  1.00118011  4134
Epoch: 2025-12-04T10:08Z
TLE epoch observation values (Epoch: 2025-12-04T10:08:15.066Z)
Latitude
-0.00001°
Longitude
-128.46196°
Altitude
35,847.973 km
Speed
3.072 km/s
True Right ascension
06h 28m 19s
True Declination
0° 00' 00"
Sunlit
Object was in daylight at epoch
Visualization orbit readout
Latitude
Unknown
Longitude
Unknown
Altitude
Unknown
Speed
Unknown
Apparent Right ascension
Unknown
Apparent Declination
Unknown
Sunlit
N/A
Visualization observer readout
Local Sidereal Time
12:10:07
Azimuth
Unknown
Elevation
Unknown
Doppler factor
Unknown
Orbital elements
Apogee altitude
35,876.793 km
Perigee altitude
35,784.862 km
Semi-major axis
42,208.964 km
Eccentricity
0.00109
Inclination
1.2055°
RAAN
98.06°
Arg. of periapsis
244.7392°
True anomaly
114.30137°
Mean anomaly
114.1876°
Eccentric anomaly
114.24449°
Mean motion
0.25029 °/min
Orbital period
1,438.36 mins
BSTAR
0
Loading maneuver chart data...
Computing Atmospheric mass density...
Loading historical data...
Loading historical data...
Loading historical data...
Loading historical data...
Loading historical data...
Loading historical data...
Loading historical data...

Documentation

Showing up to 5 results
|